Home > Weather > Rostov-on-Don > Past weeks

Flag for Russia Past Weather in Rostov-on-Don, Russia — Yesterday and Last 2 Weeks

Now
79 °F

Scattered clouds.


Feels Like: 80 °F
Forecast: 65 / 83 °F
Wind: 6 mph from Northeast

Location: Rostov-Na-Donu

Current Time: Jul 25, 2016 at 3:03:41 PM

Latest Report: Jul 25, 2016 at 2:00 PM


Visibility: N/A

Pressure: 29.86 "Hg

Humidity: 51%

Dew Point: 59 °F

Location of Rostov-on-DonLocation

Past Weather in Rostov-on-Don — Graph

°F

Rostov-on-Don Temperature Yesterday

Maximum temperature yesterday: 73 °F (at 12:00 PM)
Minimum temperature yesterday: 63 °F (at 2:30 AM)
Average temperature yesterday: 68 °F

High & Low Weather Summary for the Past Weeks

 TemperatureHumidityPressure
High100 °F (Jul 17, 1:00 PM)100% (Jul 23, 11:30 PM)30.07 "Hg (Jul 23, 11:30 PM)
Low61 °F (Jul 23, 10:30 PM)21% (Jul 17, 2:30 PM)29.53 "Hg (Jul 19, 2:30 AM)
Average77 °F57%29.84 "Hg
* Reported Jul 10 1:00 PM — Jul 25 1:30 PM, Rostov-on-Don, Weather by CustomWeather, © 2016

Note: Actual official high and low records may vary slightly from our data, if they occured in-between our weather recording intervals... More about our weather records

Advertising

Rostov-on-Don Weather History for the Previous 24 Hours

Scroll right to see more
 ConditionsComfort  
Time TempWeatherWind HumidityBarometerVisibility
1:30 PM
Mon, Jul 25
79 °FScattered clouds.8 mph51%29.86 "HgN/A
1:00 PM79 °FSprinkles. Scattered clouds.10 mph51%29.86 "HgN/A
12:30 PM79 °FScattered clouds.8 mph51%29.83 "HgN/A
12:00 PM79 °FScattered clouds.8 mph51%29.86 "HgN/A
11:30 AM79 °FScattered clouds.10 mph51%29.83 "HgN/A
11:00 AM77 °FScattered clouds.10 mph54%29.83 "HgN/A
10:00 AM75 °FPassing clouds.8 mph65%29.83 "HgN/A
9:30 AM73 °FPassing clouds.10 mph69%29.83 "HgN/A
9:00 AM72 °FPassing clouds.10 mph73%29.83 "HgN/A
8:30 AM72 °FPassing clouds.10 mph69%29.83 "HgN/A
8:00 AM70 °FPassing clouds.8 mph78%29.83 "HgN/A
7:30 AM68 °FSunny.8 mph78%29.83 "Hg10 mi
7:00 AM66 °FSunny.8 mph83%29.83 "Hg10 mi
6:30 AM64 °FClear.10 mph83%29.83 "Hg5 mi
6:00 AM63 °FClear.8 mph88%29.80 "Hg4 mi
5:30 AM63 °FClear.8 mph88%29.80 "Hg4 mi
5:00 AM63 °FClear.8 mph88%29.80 "Hg4 mi
4:30 AM63 °FClear.6 mph88%29.80 "Hg4 mi
4:00 AM63 °FClear.10 mph88%29.80 "Hg4 mi
3:30 AM63 °FClear.8 mph94%29.77 "Hg4 mi
3:00 AM63 °FClear.8 mph88%29.77 "Hg5 mi
2:00 AM63 °FClear.10 mph88%29.77 "Hg5 mi
1:30 AM63 °FClear.6 mph88%29.77 "Hg5 mi
1:00 AM64 °FClear.6 mph88%29.77 "Hg5 mi
12:30 AM64 °FClear.6 mph88%29.74 "Hg5 mi
12:00 AM64 °FPassing clouds.6 mph88%29.74 "Hg5 mi
11:30 PM
Sun, Jul 24
66 °FPassing clouds.3 mph83%29.74 "Hg5 mi
11:00 PM66 °FPassing clouds.6 mph83%29.74 "Hg5 mi
10:30 PM66 °FPassing clouds.3 mph83%29.74 "Hg5 mi
10:00 PM68 °FPassing clouds.3 mph78%29.74 "Hg5 mi
9:30 PM68 °FPassing clouds.6 mph78%29.74 "Hg5 mi
9:00 PM68 °FPassing clouds.3 mph78%29.74 "Hg5 mi
8:30 PM68 °FPassing clouds.6 mph78%29.71 "Hg5 mi
8:00 PM68 °FScattered clouds.3 mph78%29.71 "HgN/A
7:30 PM70 °FScattered clouds.6 mph73%29.71 "HgN/A
7:00 PM72 °FPassing clouds.6 mph69%29.71 "HgN/A
6:30 PM72 °FPassing clouds.8 mph69%29.68 "HgN/A
6:00 PM73 °FScattered clouds.8 mph61%29.68 "HgN/A
5:30 PM72 °FScattered clouds.8 mph65%29.68 "HgN/A
5:00 PM73 °FScattered clouds.8 mph61%29.68 "HgN/A
4:30 PM73 °FScattered clouds.8 mph61%29.71 "HgN/A
4:00 PM72 °FScattered clouds.10 mph65%29.68 "HgN/A
3:30 PM68 °FScattered clouds.8 mph73%29.71 "HgN/A
3:00 PM70 °FPassing clouds.10 mph69%29.68 "HgN/A
Weather by CustomWeather, © 2016

See weather overviewHow to use our weather pages